Flag for United Kingdom Weather past 2 weeks in Newtown, Wales, United Kingdom

Now
33 °F

Chilly.


Feels Like: 26 °F
Forecast: N/A
Wind: 7 mph from North

Location: Lake Vyrnwy

Current Time: Dec 27, 2014 at 6:43:46 PM

Latest Report: Dec 27, 2014 at 6:00 PM


Visibility: 13 mi

Pressure: 29.90 "Hg

Humidity: 99%

Dew point: 32 °F

Location of NewtownLocation

Historic Weather in Newtown — Graph

°F

Newtown temperature yesterday

Maximum temperature yesterday: 36 °F (at 6:00 AM)
Minimum temperature yesterday: 31 °F (at 6:00 PM)
Average temperature yesterday: 34 °F

Past Weeks' High & Low Weather Summary

 TemperatureHumidityPressure
High51 °F (Dec 18, 2:00 AM)100% (Dec 14, 4:00 AM)30.52 "Hg (Dec 14, 4:00 AM)
Low31 °F (Dec 26, 6:00 PM)69% (Dec 24, 12:00 PM)29.50 "Hg (Dec 12, 5:00 PM)
Average42 °F92%29.95 "Hg
* Reported Dec 12 5:00 PM — Dec 27 5:00 PM, Newtown, Weather by CustomWeather, © 2014

Note: Actual official high and low records may vary slightly from our data, if they occured in-between our weather recording intervals... More about our weather records

Advertising

Newtown weather history for previous 24 hours

 ConditionsComfort  
Time TempWeatherWind HumidityBarometerVisibility
5:00 PM
Dec 27
34 °FChilly.3 mph97%29.88 "Hg12 mi
4:00 PM33 °FChilly.5 mph97%29.86 "Hg7 mi
3:00 PM34 °FChilly.5 mph96%29.83 "Hg10 mi
2:00 PM35 °FChilly.3 mph94%29.83 "Hg9 mi
1:00 PM34 °FChilly.5 mph95%29.83 "Hg1 mi
12:00 PM36 °FChilly.3 mph92%29.84 "Hg14 mi
11:00 AM36 °FChilly.2 mph94%29.87 "Hg7 mi
10:00 AM35 °FChilly.5 mph92%29.87 "Hg13 mi
9:00 AM34 °FChilly.6 mph96%29.88 "Hg2 mi
8:00 AM34 °FChilly.5 mph98%29.88 "Hg8 mi
7:00 AM33 °FChilly.3 mph97%29.89 "Hg12 mi
6:00 AM33 °FChilly.5 mph97%29.89 "Hg12 mi
5:00 AM34 °FChilly.3 mph97%29.89 "Hg13 mi
4:00 AM33 °FChilly.No wind100%29.89 "Hg10 mi
3:00 AM33 °FChilly.No wind99%29.89 "Hg8 mi
2:00 AM33 °FChilly.No wind99%29.88 "Hg9 mi
1:00 AM33 °FChilly.No wind100%29.88 "Hg6 mi
12:00 AM32 °FChilly.No wind100%29.86 "Hg3 mi
11:00 PM
Dec 26
31 °FChilly.No wind100%29.83 "Hg4 mi
10:00 PM31 °FChilly.No wind100%29.78 "Hg3 mi
8:00 PM31 °FChilly.No wind100%29.73 "Hg3 mi
7:00 PM32 °FChilly.No wind100%N/AN/A
6:00 PM31 °FChilly.No wind100%N/AN/A
Weather by CustomWeather, © 2014

See weather overviewHow to use our weather pages